Date String (YYYY-MM-DD hh:mm:ss) UTC,Instrument flags,Ambient pressure (hPa),Sample flow (lpm),Bypass flow (lpm),Sample temperature (°C),Ambient temperature (°C),ASC tube jacket temperature (°C),LED temperature (°C),Box temperature (°C),Sample RH (%),Span deviation,Mass concentration (μg/m³),Mass concentration (μg/m³),Mass concentration (μg/m³)
DateTimeUTC,F1_M11,P_M11,Q1_M11,Q2_M11,T1_M11,T2_M11,T3_M11,T4_M11,T5_M11,U1_M11,ZSPAN_M11,X2_M11,X0_M11,X1_M11
2022-12-02 01:00:00,,0813.5,5.00,0.00,27.0,25.6,00.0,35.9,28.8,09.7,0002.7,0010.51,0014.42,0009.85
2022-12-02 01:01:00,,0813.3,5.00,0.00,27.0,25.6,00.0,35.9,28.8,09.4,0002.9,0010.42,0014.94,0009.76
2022-12-02 01:02:00,,0813.2,5.00,0.00,27.0,25.6,00.0,35.9,28.8,09.5,0001.3,0010.43,0015.23,0009.74
2022-12-02 01:03:00,,0813.3,5.00,0.00,26.9,25.5,00.0,35.9,28.7,08.7,0000.6,0010.37,0015.14,0009.67
2022-12-02 01:04:00,,0813.4,5.00,0.00,26.9,25.5,00.0,35.9,28.7,08.6,0000.0,0010.19,0015.03,0009.50
2022-12-02 01:05:00,,0813.5,5.00,0.00,26.9,25.5,00.0,35.9,28.7,09.0,0000.0,0010.04,0015.12,0009.33
2022-12-02 01:06:00,,0813.8,4.99,0.00,26.9,25.4,00.0,35.9,28.7,09.3,0000.0,0009.88,0015.15,0009.17
2022-12-02 01:07:00,,0814.2,4.99,0.00,26.9,25.5,00.0,35.9,28.7,09.4,0000.0,0009.74,0015.32,0009.05
2022-12-02 01:08:00,,0814.3,5.00,0.00,26.9,25.4,00.0,35.9,28.7,09.5,0000.0,0009.69,0015.54,0008.99
2022-12-02 01:09:00,,0813.6,4.99,0.00,26.9,25.3,00.0,35.9,28.7,09.5,0000.0,0009.71,0015.55,0009.03
2022-12-02 01:10:00,,0813.4,4.99,0.00,26.8,25.1,00.0,35.9,28.6,09.6,0000.0,0009.82,0015.68,0009.13
2022-12-02 01:11:00,,0813.6,5.01,0.00,26.8,25.1,00.0,35.9,28.6,10.2,0000.0,0010.00,0016.27,0009.29
2022-12-02 01:12:00,,0813.4,5.01,0.00,26.8,25.1,00.0,35.9,28.6,10.5,0000.0,0010.38,0016.73,0009.58
2022-12-02 01:13:00,,0813.6,4.99,0.00,26.8,25.2,00.0,35.8,28.6,09.9,0000.0,0010.58,0016.85,0009.79
2022-12-02 01:14:00,,0813.6,4.99,0.00,26.8,25.2,00.0,35.8,28.6,09.9,0001.1,0010.93,0017.39,0010.09
2022-12-02 01:15:00,,0813.5,5.00,0.00,26.8,25.2,00.0,35.8,28.6,09.8,0004.5,0011.37,0018.16,0010.50
2022-12-02 01:16:00,,0813.3,5.01,0.00,26.8,25.3,00.0,35.8,28.6,09.3,0004.6,0011.64,0018.29,0010.72
2022-12-02 01:17:00,,0813.3,5.01,0.00,26.8,25.3,00.0,35.8,28.6,08.9,0003.8,0011.62,0018.81,0010.70
2022-12-02 01:18:00,,0813.5,5.00,0.00,26.8,25.3,00.0,35.8,28.6,09.5,0002.8,0011.63,0018.62,0010.67
2022-12-02 01:19:00,,0813.5,4.99,0.00,26.8,25.3,00.0,35.8,28.6,10.2,0003.3,0011.91,0018.97,0010.91
2022-12-02 01:20:00,,0813.4,5.00,0.00,26.7,25.3,00.0,35.8,28.5,10.5,0002.8,0012.24,0021.12,0011.16
2022-12-02 01:21:00,,0813.6,5.01,0.00,26.7,25.2,00.0,35.8,28.5,10.6,0002.2,0012.49,0021.66,0011.38
2022-12-02 01:22:00,,0813.6,5.01,0.00,26.7,25.2,00.0,35.8,28.5,10.3,0002.4,0012.66,0021.71,0011.54
2022-12-02 01:23:00,,0813.5,5.00,0.00,26.7,25.2,00.0,35.7,28.5,09.8,0002.3,0012.58,0021.72,0011.52
2022-12-02 01:24:00,,0813.5,4.99,0.00,26.7,25.2,00.0,35.7,28.5,09.5,0002.5,0012.58,0021.61,0011.48
2022-12-02 01:25:00,,0813.6,4.99,0.00,26.7,25.2,00.0,35.7,28.5,10.0,0002.0,0012.63,0021.90,0011.49
2022-12-02 01:26:00,,0813.6,4.99,0.00,26.7,25.2,00.0,35.7,28.4,09.2,0001.4,0012.44,0021.56,0011.33
2022-12-02 01:27:00,,0813.3,5.01,0.00,26.6,25.0,00.0,35.7,28.4,07.9,0001.2,0011.95,0020.88,0010.92
2022-12-02 01:28:00,,0813.4,5.00,0.00,26.6,24.8,00.0,35.7,28.4,07.8,0001.8,0011.62,0020.77,0010.61
2022-12-02 01:29:00,,0813.3,4.99,0.00,26.6,24.8,00.0,35.7,28.4,07.9,0003.1,0011.28,0020.55,0010.29
2022-12-02 01:30:00,,0813.4,5.00,0.00,26.6,24.7,00.0,35.7,28.3,07.4,0003.1,0010.54,0019.75,0009.61
2022-12-02 01:31:00,,0813.6,5.00,0.00,26.5,24.5,00.0,35.6,28.3,06.6,0003.1,0009.50,0017.21,0008.68
2022-12-02 01:32:00,,0813.5,5.00,0.00,26.5,24.5,00.0,35.6,28.2,07.2,0000.0,0008.55,0015.82,0007.81
2022-12-02 01:33:00,,0813.3,5.00,0.00,26.5,24.4,00.0,35.6,28.2,08.1,0000.0,0007.86,0014.87,0007.19
2022-12-02 01:34:00,,0813.6,4.98,0.00,26.4,24.5,00.0,35.6,28.2,08.4,0000.0,0007.46,0013.78,0006.82
2022-12-02 01:35:00,,0813.5,5.02,0.00,26.4,24.4,00.0,35.5,28.2,08.9,0000.0,0007.14,0013.50,0006.56
2022-12-02 01:36:00,,0813.5,4.99,0.00,26.4,24.5,00.0,35.5,28.2,09.1,0000.0,0006.79,0013.50,0006.31
2022-12-02 01:37:00,,0813.5,4.99,0.00,26.4,24.6,00.0,35.5,28.2,08.4,0000.0,0006.44,0013.03,0006.02
2022-12-02 01:38:00,,0813.4,5.01,0.00,26.4,24.7,00.0,35.5,28.2,07.9,0000.0,0006.32,0012.90,0005.89
2022-12-02 01:39:00,,0813.2,5.01,0.00,26.4,24.8,00.0,35.4,28.2,07.8,0000.0,0006.25,0012.83,0005.84
2022-12-02 01:40:00,,0813.2,4.99,0.00,26.4,24.8,00.0,35.4,28.2,07.8,0000.0,0006.15,0012.29,0005.77
2022-12-02 01:41:00,,0813.2,5.02,0.00,26.4,24.8,00.0,35.4,28.2,07.5,0000.0,0006.12,0012.32,0005.74
2022-12-02 01:42:00,,0813.2,5.00,0.00,26.4,24.9,00.0,35.4,28.2,07.7,0000.0,0006.33,0012.04,0005.91
2022-12-02 01:43:00,,0813.2,4.99,0.00,26.3,24.9,00.0,35.4,28.2,07.9,0000.0,0006.58,0012.41,0006.13
2022-12-02 01:44:00,,0813.1,4.99,0.00,26.3,24.8,00.0,35.4,28.1,07.7,0000.0,0006.61,0013.09,0006.16
2022-12-02 01:45:00,,0812.9,5.00,0.00,26.3,24.8,00.0,35.4,28.1,07.4,0000.0,0006.43,0013.23,0005.97
2022-12-02 01:46:00,,0812.8,5.00,0.00,26.3,24.7,00.0,35.3,28.1,06.6,0000.0,0005.94,0012.36,0005.51
2022-12-02 01:47:00,,0813.0,5.00,0.00,26.3,24.7,00.0,35.3,28.1,06.7,0000.0,0005.33,0010.83,0004.94
2022-12-02 01:48:00,,0813.1,5.00,0.00,26.3,24.6,00.0,35.3,28.1,07.5,0000.0,0004.98,0010.26,0004.59
2022-12-02 01:49:00,,0813.2,5.01,0.00,26.2,24.4,00.0,35.3,27.9,08.4,0000.0,0004.95,0010.30,0004.55
2022-12-02 01:50:00,,0813.1,4.99,0.00,26.2,24.2,00.0,35.3,27.9,08.6,0000.0,0005.08,0010.37,0004.68
2022-12-02 01:51:00,,0813.2,5.00,0.00,26.2,24.3,00.0,35.3,27.9,08.0,0000.0,0005.11,0010.13,0004.73
2022-12-02 01:52:00,,0813.3,5.00,0.00,26.2,24.3,00.0,35.3,27.9,07.9,0000.0,0005.08,0009.75,0004.72
2022-12-02 01:53:00,,0813.3,4.99,0.00,26.1,24.2,00.0,35.2,27.8,09.0,0000.0,0005.26,0009.84,0004.90
2022-12-02 01:54:00,,0813.2,5.02,0.00,26.1,24.1,00.0,35.2,27.8,08.4,0000.0,0005.35,0009.89,0005.00
2022-12-02 01:55:00,,0813.1,4.98,0.00,26.0,24.2,00.0,35.2,27.8,08.3,0000.0,0005.41,0009.28,0005.06
2022-12-02 01:56:00,,0813.1,5.00,0.00,26.0,24.2,00.0,35.2,27.8,08.5,0000.0,0005.50,0009.02,0005.18
2022-12-02 01:57:00,,0813.1,5.00,0.00,26.0,24.3,00.0,35.1,27.8,08.6,0000.0,0005.87,0009.67,0005.54
2022-12-02 01:58:00,,0813.0,5.02,0.00,26.0,24.3,00.0,35.1,27.8,08.8,0000.0,0006.40,0010.98,0006.02
2022-12-02 01:59:00,,0812.9,5.02,0.00,26.0,24.3,00.0,35.1,27.8,08.4,0000.0,0006.86,0011.77,0006.45
